Terminal Aerodrome Forecast
Issued by NWS

Home | Current Version | Previous Version | Graphics & Text | Print | Product List | Glossary On
Versions: 1 2 3 4 5 6 7 8 9 10 11 12 13 14 15
000
FTUS43 KGRB 241720
TAFAUW
TAF
KAUW 241720Z 2418/2518 20010KT P6SM SCT050
     FM250100 17005KT P6SM SKC
     FM250400 16004KT P6SM SKC WS011/20030KT
     FM250900 15003KT P6SM SCT250
      TEMPO 2509/2513 5SM BR
     FM251300 17004KT P6SM SCT250
     FM251700 20008KT P6SM FEW050 BKN250=

USA.gov is the U.S. government's official web portal to all federal, state and local government web resources and services.